Weather Service Report


177 
ASUS45 KREV 310410
RWRNV 
NEVADA REGIONAL WEATHER ROUNDUP
NATIONAL WEATHER SERVICE RENO NV
900 PM PDT TUE AUG 30 2016

NOTE: "FAIR" INDICATES FEW OR NO CLOUDS BELOW 12,000 FEET WITH NO
SIGNIFICANT WEATHER AND/OR OBSTRUCTIONS TO VISIBILITY.

NVZ001-003-004-310500-
WESTERN NEVADA
  
CITY           SKY/WX    TMP DP  RH WIND       PRES   REMARKS
RENO           PTCLDY    78  25  14 NW17G24   30.01R                  
CARSON CITY    FAIR      75  28  17 W7        30.05S                  
MINDEN         FAIR      68  30  24 E5        30.06R                  
PYRAMID LAKE     N/A     81 N/A N/A W1          N/A                   
FALLON         PTCLDY    83  26  12 NW9       29.96R                  
LOVELOCK       PTCLDY    80  24  12 NW10      29.97R                  
HAWTHORNE        N/A     88  28  11 CALM      29.97R                  
$$

NVZ002-CAZ072-073-310500-
NORTHERN AND CENTRAL SIERRA
  
CITY           SKY/WX    TMP DP  RH WIND       PRES   REMARKS
S. LAKE TAHOE  CLEAR     59  32  36 CALM      30.18R                  
TRUCKEE        CLEAR     59  27  29 SW6       30.16S                  
SQUAW VLY 8000 NOT AVBL                                               
SUSANVILLE     CLEAR     72  36  26 SW8       30.03R                  
MAMMOTH LAKES  FAIR      70  30  22 S15G21    30.24R                  
BRIDGEPORT       N/A     70  25  18 W8        30.18R                  
$$

NVZ030-031-036-310500-
NORTHERN NEVADA
  
CITY           SKY/WX    TMP DP  RH WIND       PRES   REMARKS
ELKO           MOCLDY    76  27  16 CALM      30.03R                  
WINNEMUCCA     CLEAR     69  20  15 CALM      29.99R                  
WENDOVER       PTCLDY    81  27  13 NE9       30.02S                  
$$

NVZ035-037-310500-
CENTRAL NEVADA
  
CITY           SKY/WX    TMP DP  RH WIND       PRES   REMARKS
ELY            CLEAR     63  25  23 S12       30.18R                  
EUREKA           N/A     74  28  18 S10       30.11R                  
$$

NVZ013-014-310500-
SOUTH CENTRAL NEVADA
  
CITY           SKY/WX    TMP DP  RH WIND       PRES   REMARKS
TONOPAH        CLEAR     74  22  14 SW5       30.10R                  
$$

NVZ017-020-022-310500-
SOUTHERN NEVADA
  
CITY           SKY/WX    TMP DP  RH WIND       PRES   REMARKS
LAS VEGAS      PTCLDY    97  34  11 S5        29.84R                  
N. LAS VEGAS   CLEAR     96  41  15 SW5       29.85R                  
NELLIS AFB     CLEAR     94  46  19 S6        29.83R                  
HENDERSON      CLEAR     92  43  18 S8        29.90R                  
MERCURY        CLEAR     89  33  13 E7        29.93R                  
$$
  

Return to Home page


Western Regional Climate Center, wrcc@dri.edu